Home > Weather > Lübbecke > Past weeks

Flag for Germany Past Weather in Lübbecke, North Rhine-Westphalia, Germany — Yesterday and Last 2 Weeks

Now
66 °F

Mild.


Feels Like: 66 °F
Forecast: 56 / 67 °F
Wind: 2 mph from Northwest

Location: Bueckeburg

Current Time: Jul 30, 2016 at 8:59:47 PM

Latest Report: Jul 30, 2016 at 8:20 PM


Visibility: 3 mi

Pressure: 29.92 "Hg

Humidity: 78%

Dew Point: 59 °F

Location of LübbeckeLocation

Past Weather in Lübbecke — Graph

°F

Lübbecke Temperature Yesterday

Maximum temperature yesterday: 73 °F (at 5:20 PM)
Minimum temperature yesterday: 63 °F (at 5:20 AM)
Average temperature yesterday: 67 °F

High & Low Weather Summary for the Past Weeks

 TemperatureHumidityPressure
High90 °F (Jul 20, 3:20 PM)100% (Jul 17, 3:20 AM)30.24 "Hg (Jul 17, 3:20 AM)
Low54 °F (Jul 16, 2:20 AM)28% (Jul 17, 4:20 PM)29.83 "Hg (Jul 29, 5:20 PM)
Average70 °F70%30.04 "Hg
* Reported Jul 15 7:20 PM — Jul 30 7:20 PM, Lübbecke, Weather by CustomWeather, © 2016

Note: Actual official high and low records may vary slightly from our data, if they occured in-between our weather recording intervals... More about our weather records

Advertising

Lübbecke Weather History for the Previous 24 Hours

Scroll right to see more
 ConditionsComfort  
Time TempWeatherWind HumidityBarometerVisibility
7:20 PM
Sat, Jul 30
68 °FPartly sunny.2 mph73%29.89 "HgN/A
6:20 PM68 °FBroken clouds.6 mph69%29.89 "HgN/A
5:20 PM72 °FScattered clouds.9 mph61%29.89 "HgN/A
4:20 PM72 °FScattered clouds.13 mph61%29.89 "HgN/A
3:20 PM72 °FBroken clouds.12 mph65%29.89 "HgN/A
2:20 PM72 °FScattered clouds.13 mph61%29.89 "HgN/A
1:20 PM70 °FScattered clouds.14 mph60%29.89 "HgN/A
12:20 PM72 °FScattered clouds.17 mph57%29.86 "HgN/A
11:20 AM68 °FScattered clouds.14 mph60%29.86 "HgN/A
10:20 AM66 °FScattered clouds.13 mph68%29.89 "HgN/A
9:20 AM66 °FPartly sunny.14 mph73%29.86 "HgN/A
8:20 AM66 °FPartly sunny.13 mph73%29.86 "HgN/A
7:20 AM64 °FMild.9 mph78%29.86 "Hg3 mi
6:20 AM61 °FCool.9 mph88%29.86 "Hg3 mi
5:20 AM63 °FMild.7 mph83%29.86 "Hg3 mi
4:20 AM63 °FMild.7 mph83%29.86 "Hg4 mi
3:20 AM63 °FMild.6 mph83%29.86 "Hg4 mi
2:20 AM64 °FMild.6 mph78%29.86 "Hg3 mi
1:20 AM64 °FMild.7 mph78%29.86 "Hg3 mi
12:20 AM66 °FMild.6 mph78%29.86 "Hg3 mi
11:20 PM
Fri, Jul 29
68 °FMild.6 mph78%29.86 "Hg3 mi
10:20 PM68 °FMild.6 mph78%29.86 "Hg3 mi
9:20 PM68 °FMild.6 mph73%29.83 "Hg4 mi
8:20 PM72 °FMild.8 mph65%29.83 "Hg3 mi
Weather by CustomWeather, © 2016

See weather overviewHow to use our weather pages